Wind_Speed
15 15 15 14 14 14 14 15 15 14 12 12 12 12 12 12 11 11 11 10 10 10 10 9 8 8 8 7 7 7 7 7 7 7 7 7 7 6 5 5 5 6 5 6 6 5 4 5 5 5 5 5 5 5 5 5 6 4 2 3 4 4 3 4 6 7 7 8 10 11 11 11 11 9 9 11 11 12 13 14 15 16 16 16 16
14 14 14 14 15 14 14 14 14 15 14 14 13 13 12 12 11 11 11 11 10 10 10 10 10 9 9 8 7 7 7 7 8 8 8 8 8 8 7 7 7 6 6 6 6 6 5 5 6 6 7 6 6 6 5 6 7 4 2 4 5 4 4 5 6 8 8 9 9 11 11 10 10 10 10 11 12 13 14 14 15 15 16 16 17
15 14 14 14 14 14 14 14 14 15 15 15 15 15 14 13 13 13 12 11 11 11 10 10 10 10 9 8 8 8 7 8 9 9 8 8 8 8 7 7 7 7 7 7 6 6 6 6 7 7 7 6 5 6 5 5 6 5 4 5 5 6 6 6 6 8 10 10 10 11 11 11 11 11 10 11 12 13 14 14 15 16 16 16 17
13 14 14 14 14 14 15 15 15 15 15 15 15 16 16 15 14 14 13 12 12 11 11 11 9 10 10 9 9 9 9 9 10 9 9 9 9 9 7 7 7 7 7 7 7 6 6 6 7 7 6 5 5 6 6 5 5 4 5 5 5 6 6 6 6 7 9 11 11 12 12 12 12 12 11 12 13 13 14 15 16 16 16 17 17
10 12 13 13 14 15 15 15 15 14 14 14 15 15 16 15 15 14 14 13 13 12 11 11 10 10 11 11 10 11 11 11 11 10 10 9 9 9 9 8 9 9 8 8 8 7 7 7 7 7 6 6 6 7 6 5 5 5 5 5 5 6 6 7 8 8 9 11 12 12 13 13 13 12 12 13 14 14 14 15 16 15 16 16 17
10 10 12 12 13 15 15 15 15 14 15 14 14 14 15 15 15 14 14 13 13 13 12 12 12 11 12 12 11 11 12 12 12 11 11 10 10 9 9 9 9 10 10 9 9 9 9 9 9 8 8 8 7 7 5 5 6 6 6 6 6 7 8 8 8 9 10 11 12 13 13 13 13 12 12 13 15 15 15 15 15 15 15 16 17
10 10 12 12 13 14 14 14 14 14 15 15 14 14 15 15 15 14 15 14 14 14 14 13 13 12 12 13 12 12 12 12 12 12 12 11 10 10 10 10 10 10 10 10 10 10 10 10 10 9 9 9 8 7 6 6 6 6 6 6 7 7 8 9 9 10 11 11 12 12 13 13 13 13 14 14 14 14 15 15 15 15 15 16 18
11 11 11 12 13 14 14 14 14 13 13 13 14 14 15 15 15 15 14 14 15 15 15 15 14 14 14 14 13 13 13 14 13 13 13 13 12 11 10 10 11 10 10 10 10 10 11 11 11 10 10 10 9 8 6 5 5 6 6 6 7 8 9 10 10 10 11 12 12 12 13 13 14 14 14 14 13 14 15 16 15 15 15 16 18
11 12 11 12 12 13 13 12 12 11 10 10 11 11 13 14 15 15 15 15 15 15 15 15 15 15 15 15 14 15 15 15 14 14 14 13 12 13 12 11 11 11 10 11 11 11 11 11 11 10 9 9 9 9 8 7 7 7 7 7 7 8 9 10 10 11 11 12 12 13 13 13 14 14 14 14 15 16 16 16 15 15 17 18 19
12 13 14 14 13 12 12 12 11 12 11 10 10 10 10 10 11 12 14 15 15 14 14 15 16 16 15 15 15 15 15 15 14 15 14 13 12 12 12 10 9 9 10 11 11 11 11 11 11 11 10 9 10 11 12 11 11 10 9 9 9 9 9 10 11 11 11 12 13 13 14 14 14 15 15 16 17 17 17 16 16 17 18 18 19
14 15 15 16 16 15 14 12 11 11 12 13 13 12 11 11 10 10 12 14 14 14 14 14 15 16 15 15 15 15 13 13 14 15 15 15 13 11 10 9 9 9 11 11 11 11 12 12 12 12 12 11 11 12 12 11 10 11 12 12 12 12 12 12 12 11 11 12 13 14 15 15 16 17 17 18 18 18 17 17 17 18 18 16 17
17 17 16 17 18 18 19 18 15 12 14 16 16 15 14 15 13 12 12 13 13 14 14 15 15 15 14 15 15 13 9 9 12 14 15 16 16 14 12 11 12 13 13 13 13 12 12 12 12 12 11 9 8 9 10 9 10 11 12 13 14 15 15 16 15 14 13 12 13 15 16 16 18 19 18 19 20 19 19 19 17 17 17 17 17
15 15 15 16 15 15 17 19 19 17 16 17 17 17 17 17 17 16 15 14 13 14 16 16 15 15 15 15 11 7 7 8 10 12 13 14 16 16 14 14 14 15 14 13 13 13 12 12 12 11 10 8 8 9 9 9 10 11 12 13 14 14 15 16 16 15 15 14 15 16 16 17 19 19 19 20 21 20 20 19 18 17 17 18 19
5 5 8 9 11 13 14 16 19 20 18 18 18 17 16 17 17 17 15 14 15 15 16 17 15 13 13 12 6 3 5 7 8 10 12 13 14 15 16 15 15 15 15 14 14 13 12 12 12 12 9 6 7 8 7 6 7 9 11 13 13 13 13 13 14 13 14 15 16 16 16 18 19 18 19 20 19 19 19 19 19 19 21 22 23
4 4 4 6 7 9 10 9 11 14 14 15 15 15 15 16 17 16 16 17 16 15 16 17 16 12 8 5 3 3 5 7 7 9 11 12 13 14 14 15 15 16 16 15 15 14 13 12 11 10 8 6 8 9 8 7 7 8 10 12 13 13 13 13 12 12 12 13 15 16 17 18 18 18 20 20 20 20 20 20 21 21 23 23 23
8 8 6 6 5 5 5 6 5 4 6 6 7 10 13 14 15 14 17 19 18 16 17 16 15 11 6 4 3 3 5 7 8 9 9 10 10 10 11 12 13 13 14 12 11 10 9 9 8 5 5 7 8 9 10 11 9 9 10 11 12 12 13 13 13 13 14 15 15 16 17 18 19 21 22 21 20 20 20 19 19 19 19 20 20
12 12 11 10 9 7 6 6 6 4 2 1 1 3 5 6 8 9 13 17 17 16 16 13 11 10 8 8 8 7 6 7 8 8 8 9 8 7 9 10 11 12 13 11 8 9 6 5 7 7 4 5 6 7 9 10 9 9 10 11 11 11 11 11 12 15 16 15 16 18 20 21 22 23 23 21 20 19 19 18 17 18 18 17 17
15 14 14 13 11 11 11 9 8 8 6 6 6 4 5 4 2 4 6 10 13 13 12 8 5 8 10 10 9 7 5 6 7 8 9 9 8 7 9 10 9 9 10 9 7 8 4 4 5 5 4 5 6 7 9 10 9 9 10 11 11 11 10 9 10 13 14 15 17 19 20 20 21 22 22 21 19 17 17 18 18 19 19 17 17
16 14 13 12 11 11 11 10 9 9 8 9 9 8 8 8 4 1 1 5 8 10 11 9 8 11 12 10 7 5 4 4 5 6 7 7 8 9 9 9 9 9 8 8 8 8 5 3 4 5 5 7 8 9 10 10 9 8 9 11 10 9 8 8 9 12 14 15 17 18 18 18 18 19 19 19 17 16 16 17 17 17 17 18 19
15 14 13 12 11 11 10 9 10 9 9 9 10 9 8 8 8 6 5 6 9 11 12 12 10 11 12 11 8 4 1 1 2 3 4 5 7 7 6 7 7 6 4 5 7 7 4 3 3 3 4 6 7 8 8 7 7 7 8 8 9 8 9 10 11 13 14 15 16 16 17 16 16 16 16 15 14 14 14 14 14 15 16 18 19
12 13 12 10 10 10 10 10 10 10 10 10 10 9 8 7 8 8 8 8 9 10 12 11 9 10 11 10 7 4 3 2 3 3 3 3 3 2 2 3 3 3 2 3 5 6 4 3 4 4 5 6 7 7 7 6 7 8 8 8 9 10 11 12 13 13 14 14 14 14 14 14 15 15 14 13 12 11 12 12 11 13 15 16 17
9 10 10 9 8 9 10 12 11 9 9 10 10 9 7 7 7 6 7 7 7 7 8 7 5 7 10 8 7 5 3 3 3 3 2 2 2 1 1 1 2 3 1 2 2 2 2 3 4 6 7 8 8 8 8 8 9 10 10 10 11 12 13 14 14 14 13 12 12 12 12 13 14 13 12 12 11 10 11 13 13 13 14 14 16
7 7 8 7 7 7 8 9 8 7 7 9 9 8 7 7 6 5 6 6 6 6 5 3 3 5 7 7 8 7 4 4 3 3 3 3 2 2 1 1 1 3 3 2 3 3 2 3 5 9 9 9 10 11 12 12 13 13 14 14 14 14 15 16 16 14 12 11 11 11 12 12 12 12 12 11 11 12 15 16 16 14 13 13 14
6 6 6 5 5 5 5 5 5 5 6 7 8 8 8 7 6 5 5 5 5 4 3 1 2 3 4 5 6 6 4 4 4 5 5 4 4 3 3 2 1 2 4 5 4 3 1 3 8 11 11 12 14 15 16 16 16 16 17 16 16 16 16 16 14 11 10 10 11 12 12 11 12 12 11 10 12 15 16 16 15 14 14 14 15
6 6 5 5 4 4 4 4 5 4 3 4 6 6 6 6 6 6 4 3 3 2 0 1 1 2 2 3 4 4 3 2 3 5 6 6 7 6 5 5 4 2 3 5 6 6 7 9 11 12 14 16 16 17 18 18 17 16 16 16 15 15 15 13 11 9 10 11 11 12 12 12 11 11 11 12 14 15 15 14 14 14 15 15 16
5 5 4 4 4 3 3 3 4 4 3 3 5 5 4 5 4 5 6 4 1 0 1 2 2 2 2 2 2 2 1 1 2 5 6 6 8 9 8 7 6 4 4 6 7 9 11 12 13 14 15 15 15 15 15 13 13 14 14 12 12 12 11 10 9 9 10 11 11 11 11 11 11 12 12 13 14 13 13 14 15 15 15 16 18
4 3 3 3 3 3 3 3 2 3 3 3 5 6 5 6 6 3 3 4 4 4 3 3 2 2 2 2 2 3 3 3 4 4 4 4 5 7 8 8 8 7 6 7 7 9 12 14 13 12 12 12 11 11 10 9 9 10 10 9 9 9 9 8 9 10 10 10 10 10 10 11 12 13 13 12 12 12 12 13 15 15 16 17 18
2 2 2 2 2 2 3 2 2 2 3 3 4 4 3 4 4 4 3 2 3 6 4 1 0 1 1 1 2 3 3 6 5 1 4 5 5 5 5 6 7 7 8 9 10 11 12 12 11 10 10 10 9 9 10 9 9 8 8 7 7 8 9 10 11 10 10 9 9 9 10 11 12 12 12 12 12 12 12 12 13 15 16 16 17
1 1 1 2 2 2 2 2 3 3 3 3 3 3 4 3 4 4 2 5 4 3 4 3 2 2 3 1 1 1 5 6 2 3 5 7 7 6 6 7 7 8 9 10 11 12 11 10 10 10 9 8 7 7 7 6 6 6 7 7 7 8 8 8 8 8 8 8 8 9 10 11 11 11 12 13 12 12 12 13 14 16 16 16 17
1 1 2 3 4 3 3 4 4 4 3 2 3 3 2 2 2 3 1 3 6 6 4 2 1 1 3 4 0 1 3 2 3 5 6 7 8 8 8 9 9 10 10 10 11 12 11 10 10 8 6 6 6 7 7 6 6 7 7 7 7 8 8 7 8 8 7 8 9 9 10 10 10 11 12 12 12 13 13 14 16 16 16 16 17
1 2 2 4 4 4 3 3 3 3 3 3 2 1 2 1 1 1 3 4 4 6 7 6 6 5 2 4 2 3 4 4 6 7 8 9 10 10 11 11 11 11 11 11 12 11 10 9 8 7 7 7 7 7 7 7 7 7 7 8 8 8 8 8 8 8 8 9 10 10 11 11 11 11 12 12 13 14 14 15 15 16 16 16 17
1 2 3 3 2 2 2 2 2 2 1 1 1 2 2 4 4 2 1 3 3 3 5 5 5 6 4 3 2 1 4 6 7 8 9 11 11 12 13 12 11 11 10 10 10 10 9 8 8 7 7 7 7 7 7 7 8 8 8 9 9 9 9 9 10 10 10 11 11 11 12 12 12 13 13 13 13 15 15 16 16 16 16 17 17
2 3 2 2 2 2 2 2 2 2 2 2 1 2 3 3 4 4 3 1 1 2 2 3 4 5 5 4 4 6 8 10 10 11 12 12 12 13 13 11 9 8 8 7 8 8 8 8 7 7 7 7 7 7 7 8 8 8 9 9 10 10 10 10 11 11 11 11 12 13 14 14 15 15 14 14 14 15 16 16 16 16 17 17 17
3 3 2 2 1 1 2 2 2 2 2 3 3 3 3 3 2 1 3 4 4 3 2 2 2 4 6 8 8 9 10 11 12 12 13 12 12 12 11 8 6 5 6 5 6 7 7 7 7 7 7 7 8 8 8 9 9 9 9 10 10 10 11 11 11 11 11 12 12 13 14 15 15 16 17 16 16 17 17 17 17 16 16 17 18
3 3 2 2 0 1 1 2 2 3 2 3 4 4 4 3 4 4 3 2 3 4 5 5 3 3 7 10 9 8 8 9 10 10 9 9 9 9 7 6 4 5 5 4 5 6 6 6 7 7 7 8 8 8 9 9 9 9 10 10 11 11 12 12 12 11 11 12 13 13 14 15 15 17 17 17 17 18 18 17 17 17 17 17 18
4 4 3 2 1 0 1 1 2 2 3 3 4 5 5 4 4 4 4 3 3 3 2 5 4 2 6 7 7 8 9 9 8 6 6 7 7 6 5 5 5 4 3 4 5 6 6 6 7 7 8 8 8 9 9 9 9 10 10 11 11 12 12 12 12 13 14 14 14 15 15 15 16 17 17 17 18 18 18 18 18 18 18 18 19
3 3 3 2 1 0 1 1 1 2 3 4 4 4 4 5 5 5 5 4 3 4 3 1 2 3 4 3 3 7 10 10 8 6 6 7 8 6 4 5 5 5 5 5 5 6 6 6 7 7 7 8 8 9 9 10 10 11 11 11 11 12 12 14 15 15 16 15 15 14 15 15 16 17 17 18 18 18 18 18 19 19 20 20 21
2 3 3 2 1 1 1 1 1 2 3 3 3 3 4 4 4 5 5 5 4 4 5 4 3 3 4 2 1 5 8 9 9 7 5 6 6 5 5 5 5 5 5 5 5 6 6 6 7 7 7 8 9 10 10 11 11 12 12 13 13 13 14 15 15 15 15 15 15 15 15 16 16 17 18 19 19 19 20 20 20 20 20 20 20
4 5 4 3 2 2 2 2 2 2 3 3 3 3 4 4 4 4 5 5 5 5 5 5 4 4 3 1 2 4 7 8 9 8 6 5 5 5 5 5 5 6 6 6 6 7 7 7 8 8 8 9 10 10 11 11 12 12 13 13 14 14 14 15 15 15 15 15 16 16 16 16 17 18 18 19 19 20 20 20 20 21 21 21 21
6 6 4 2 3 3 2 2 3 3 3 3 3 3 3 3 4 5 5 5 5 5 5 5 5 3 1 1 3 6 8 8 9 9 8 7 6 5 5 5 5 6 6 6 7 7 7 8 9 9 9 10 10 11 11 12 12 12 13 13 14 14 14 15 15 15 16 16 16 16 16 17 17 18 18 18 19 20 20 20 20 21 21 22 23
7 7 6 5 4 4 4 4 4 3 3 2 3 3 4 4 4 5 5 5 5 5 5 6 4 1 1 2 5 8 10 10 9 9 9 8 7 6 6 6 6 7 7 7 8 8 9 9 10 10 10 11 11 12 12 12 13 13 13 13 14 14 14 15 15 16 16 17 17 17 17 18 18 19 20 20 21 21 22 21 21 22 22 23 23
8 7 7 6 5 4 5 5 4 4 3 3 4 4 4 4 4 4 4 5 5 5 6 6 4 1 1 5 9 11 10 9 8 8 8 8 7 7 7 7 8 8 8 9 9 10 10 11 11 11 11 11 12 12 13 13 13 14 14 15 15 15 15 15 15 16 17 17 17 18 19 20 20 20 21 21 22 22 22 22 22 23 23 24 23
10 8 7 7 6 5 5 4 4 4 4 4 4 4 4 4 4 4 4 4 5 5 6 6 6 4 2 4 8 9 7 5 5 6 7 7 7 7 8 8 8 9 9 9 10 10 11 11 12 12 12 12 12 13 13 13 14 14 15 15 16 16 17 17 17 17 17 18 18 18 19 19 20 20 20 21 22 22 23 23 24 24 24 24 24
10 7 7 7 6 6 5 4 4 4 4 4 4 4 4 4 5 4 4 4 5 5 5 6 7 6 4 4 6 6 5 5 5 6 7 7 8 8 8 8 9 9 10 10 10 10 11 12 12 12 12 12 12 13 13 13 13 14 15 15 16 17 17 16 16 16 17 18 18 18 18 18 19 19 19 20 21 23 24 24 24 25 25 25 26
11 9 9 9 8 7 6 5 5 4 4 5 5 6 5 5 4 4 4 4 5 5 5 6 7 7 6 6 6 6 6 7 7 7 7 8 8 8 9 9 9 10 10 10 10 11 11 12 12 13 13 13 13 13 13 13 13 14 14 15 16 15 14 13 15 17 19 18 17 17 18 18 18 19 21 22 23 24 25 25 26 26 27 27 27
11 11 11 10 8 7 6 6 6 5 5 5 5 5 5 4 4 4 5 4 5 5 6 6 7 7 7 7 7 7 7 7 8 8 8 9 9 9 9 9 9 10 10 10 11 11 11 11 12 13 13 13 13 13 13 14 14 14 14 15 14 13 13 15 19 20 19 18 18 19 19 20 21 23 24 25 24 24 25 26 26 26 27 27 27
12 12 11 9 8 7 6 5 5 5 5 5 5 4 4 4 4 4 5 5 5 6 6 7 7 7 7 7 8 8 8 8 8 9 9 9 9 9 10 10 10 10 10 11 11 11 11 11 11 12 12 13 13 14 14 14 14 13 14 13 11 11 14 17 19 19 18 19 22 23 21 21 23 25 25 24 24 24 25 26 26 27 27 27 27
13 12 10 8 6 6 6 5 5 5 4 4 5 5 5 5 5 5 5 5 5 6 7 7 8 8 8 8 8 8 8 9 9 9 9 9 9 9 10 10 10 11 11 11 11 11 11 11 11 12 12 13 13 14 14 14 13 13 13 12 11 13 16 18 20 22 23 25 26 24 21 21 23 25 24 24 24 26 27 27 27 27 28 28 28
11 10 8 6 5 5 5 6 7 7 7 8 8 7 6 6 6 5 5 5 6 7 7 8 8 8 8 8 8 8 8 8 9 9 9 9 9 9 10 10 10 11 11 12 12 12 12 12 12 12 12 13 13 13 13 13 13 13 12 13 16 19 22 23 25 27 28 28 27 24 21 21 22 24 26 26 26 27 28 28 28 28 27 27 28
9 7 6 6 5 5 5 4 5 5 6 7 9 8 6 6 6 5 6 6 7 8 8 8 8 8 8 8 8 8 8 8 8 8 8 8 9 9 9 10 10 11 11 11 11 12 12 11 12 12 12 12 13 13 13 13 13 13 14 17 21 24 26 27 28 28 28 28 28 26 25 24 24 25 26 26 26 27 28 27 27 27 27 27 27
7 7 6 6 5 5 5 4 2 2 4 5 6 6 6 6 7 6 7 8 8 8 8 8 8 8 8 7 7 8 8 8 8 8 8 8 8 9 9 10 10 10 11 11 11 11 11 11 12 12 12 12 12 13 13 13 13 15 18 22 25 26 26 26 26 27 27 27 29 30 30 28 26 26 27 26 26 27 28 27 27 27 27 26 26
Wind_Direction
198 199 203 201 201 200 198 199 202 206 209 212 213 210 209 210 211 208 206 208 207 203 210 214 212 212 216 215 213 209 206 212 214 206 210 219 225 233 230 223 233 240 244 248 251 249 243 248 254 255 260 264 269 276 277 270 262 252 242 258 272 284 265 250 273 291 298 299 301 305 310 315 314 314 318 315 315 321 320 317 317 315 318 322 323
201 201 203 202 204 205 203 203 203 206 208 211 213 213 211 210 211 213 210 208 209 209 210 213 213 214 218 218 217 212 202 212 223 219 218 220 221 228 221 212 224 237 239 242 249 252 246 245 252 251 249 246 250 262 267 271 277 274 253 265 270 281 285 279 288 300 302 304 305 305 308 312 312 314 316 312 314 317 316 316 317 317 319 323 323
200 201 204 204 205 206 207 208 209 209 210 211 212 213 215 214 212 216 217 212 212 214 215 216 212 211 217 217 213 214 210 216 227 227 224 222 225 236 230 212 216 228 233 237 240 244 244 244 251 253 252 249 249 263 270 272 282 294 293 287 286 290 293 289 292 300 302 306 309 307 310 314 311 309 310 311 312 313 312 314 316 316 318 321 322
193 197 203 206 206 206 207 210 212 212 214 216 216 214 215 214 212 215 219 219 218 216 214 216 209 204 215 220 214 217 218 219 227 229 227 226 228 234 235 227 227 230 233 236 237 241 245 247 251 253 259 263 260 264 266 259 265 276 281 284 283 285 288 288 292 296 298 302 305 306 309 309 306 306 310 311 310 309 312 314 314 313 315 318 321
183 187 198 204 206 209 210 211 213 213 215 220 221 219 217 214 212 214 218 220 221 218 211 211 208 202 212 221 220 222 224 222 226 229 229 229 229 231 231 229 232 235 236 237 237 240 244 247 251 251 252 253 253 257 261 262 270 274 275 277 279 287 293 293 292 293 293 297 301 303 303 301 301 306 309 309 309 309 312 313 312 312 314 317 320
180 182 193 200 202 207 211 213 214 213 214 220 225 226 223 219 214 213 216 219 222 222 214 209 211 209 213 220 220 221 224 224 226 230 233 233 230 231 231 228 230 234 236 237 236 235 237 240 243 243 244 249 252 259 266 271 274 277 281 286 287 290 291 289 288 289 288 291 296 299 300 301 305 307 310 310 309 308 308 309 310 313 315 317 319
190 193 199 203 203 206 212 215 217 216 213 215 222 228 229 227 223 220 218 218 220 224 219 211 211 213 214 218 221 221 223 226 227 228 233 237 236 235 235 235 235 235 236 240 240 237 236 237 237 237 237 241 247 254 260 264 270 276 282 286 290 292 293 294 295 294 294 295 297 299 301 305 308 307 307 304 301 302 307 310 310 312 315 316 316
199 202 204 209 210 209 211 214 217 218 216 215 218 224 229 232 232 230 226 223 223 226 223 216 214 217 218 219 222 223 224 226 228 228 230 234 236 236 236 239 240 241 242 244 245 246 245 244 243 242 238 235 235 240 249 261 273 279 284 289 294 296 297 299 300 299 299 299 299 301 302 302 301 301 303 305 306 309 310 308 307 311 315 315 313
209 209 208 212 214 212 210 208 208 208 209 214 218 222 227 233 235 233 231 230 228 228 227 223 219 219 220 222 224 226 228 228 228 228 227 229 237 239 237 237 240 244 246 247 247 249 251 252 252 250 245 233 223 226 241 263 270 270 278 286 290 292 292 293 294 294 294 295 296 298 297 297 298 303 310 314 312 309 307 308 311 313 314 312 309
219 220 217 213 209 209 211 209 209 211 213 215 218 221 223 227 234 236 231 230 230 230 230 229 226 224 223 224 223 225 230 233 232 231 226 223 232 242 242 240 241 242 244 247 250 250 252 255 255 255 254 248 243 247 254 261 260 256 260 265 268 274 279 281 283 284 286 289 292 296 297 300 305 310 312 312 309 307 311 316 316 314 312 309 306
220 223 222 218 215 218 223 222 220 222 226 227 225 225 228 229 233 238 235 232 231 231 230 229 229 229 226 225 227 229 231 229 227 228 226 221 226 240 248 248 245 244 245 247 248 249 252 254 254 255 255 253 258 261 257 253 254 253 255 259 261 262 264 269 275 281 286 290 293 297 301 304 307 307 307 309 310 312 316 316 312 310 309 306 304
221 223 223 224 226 228 230 233 235 235 235 235 233 232 238 241 240 240 239 236 232 232 232 228 227 230 230 228 230 228 220 212 213 216 220 223 230 240 250 254 253 248 244 244 246 247 250 252 253 254 251 245 246 246 241 247 260 262 259 260 260 259 259 261 264 269 278 286 293 296 299 303 305 306 308 313 314 312 311 309 307 307 306 304 302
223 226 226 229 232 229 229 232 234 233 233 235 234 232 234 236 235 234 234 235 233 232 233 230 226 227 229 232 234 216 187 193 204 207 213 223 231 241 250 255 256 255 250 244 242 242 245 249 253 256 256 253 251 248 245 253 263 268 272 273 270 268 266 263 262 264 267 274 283 290 296 302 304 304 309 317 318 314 311 310 310 310 307 304 300
200 206 205 212 217 216 222 228 228 226 227 227 228 228 228 228 228 228 227 229 229 227 232 236 231 227 229 229 217 175 193 210 215 216 223 231 239 247 254 255 255 257 256 252 249 245 243 243 246 252 262 264 248 241 243 254 262 269 277 279 276 276 276 274 272 272 272 272 274 279 288 297 301 304 309 314 316 314 312 309 308 306 302 298 295
100 97 143 170 186 198 206 211 218 223 226 227 229 231 231 230 229 225 221 225 225 223 232 240 232 229 243 242 151 139 205 222 230 235 238 244 249 253 257 258 255 254 254 255 255 251 246 247 249 248 247 241 230 226 230 247 270 283 284 282 282 287 295 297 293 286 282 279 275 277 286 293 296 302 307 308 309 309 307 304 300 298 295 294 293
79 83 102 115 128 161 174 165 162 189 212 225 238 243 243 240 233 224 221 225 225 222 229 234 227 226 259 286 253 232 235 232 239 249 250 251 255 260 266 269 270 275 280 278 275 275 269 268 284 288 250 236 235 235 245 256 273 292 294 290 293 299 302 301 298 292 288 285 284 285 287 286 287 295 302 304 304 306 306 304 300 294 290 290 292
67 69 71 77 86 91 96 106 101 98 118 101 350 280 275 262 239 226 220 218 216 218 225 229 222 218 228 239 234 233 242 245 247 254 257 254 254 262 272 273 274 283 287 283 299 327 323 284 302 328 319 272 255 252 264 276 287 297 296 294 300 304 299 293 294 296 294 293 295 296 294 291 292 298 302 301 300 303 302 297 298 301 299 295 295
65 61 58 60 67 72 73 79 81 77 75 61 47 30 26 28 260 243 216 194 191 198 209 210 182 170 183 201 208 207 224 244 250 256 260 257 252 261 273 271 264 269 274 275 302 331 325 236 261 288 294 294 290 285 289 296 300 302 301 298 297 299 302 304 304 305 305 305 306 305 304 303 303 304 305 305 303 302 296 286 287 299 303 301 303
72 68 65 62 61 64 67 71 73 72 73 65 53 44 51 67 83 78 99 138 147 157 170 165 133 123 133 149 164 183 221 243 254 265 269 266 259 261 273 279 274 272 274 276 285 291 277 255 265 268 275 291 298 298 299 300 302 305 306 302 297 299 310 319 318 315 313 310 308 307 306 306 304 302 304 307 305 300 293 283 281 290 297 300 305
75 73 70 65 65 68 70 70 70 70 73 71 62 56 62 76 84 80 82 103 114 122 131 133 125 119 121 124 126 131 174 227 273 294 304 299 276 259 270 290 290 286 271 256 268 276 280 300 304 294 298 303 301 300 303 306 310 314 313 306 301 305 314 317 317 315 310 306 304 304 303 303 304 300 299 302 300 296 296 290 281 281 288 295 301
80 74 66 62 63 67 68 64 61 61 65 70 69 63 63 72 76 75 79 89 96 106 116 118 120 128 126 114 99 94 108 92 34 5 357 342 311 271 290 311 312 309 269 236 267 284 274 267 282 295 317 322 316 310 312 316 316 316 314 306 300 305 310 312 314 313 307 301 300 301 303 306 308 307 305 307 305 303 309 311 300 290 287 290 296
82 73 67 68 67 66 66 63 56 50 55 66 71 70 67 67 69 72 82 84 75 80 97 99 104 130 136 121 95 79 76 75 50 14 8 13 18 36 16 23 54 24 356 158 160 277 252 217 251 279 299 312 313 311 312 314 312 312 312 308 306 308 308 309 312 310 300 297 299 302 306 308 307 308 309 311 314 318 324 326 317 306 297 293 293
90 80 75 79 78 75 76 72 62 49 48 59 67 68 67 68 66 62 67 74 75 81 88 77 84 126 141 132 113 95 63 49 54 41 33 28 20 33 31 14 67 31 12 54 105 113 131 175 251 276 289 298 305 309 309 307 307 308 309 310 310 308 306 307 310 302 289 291 299 299 301 304 305 308 310 313 319 324 322 316 310 306 303 299 297
95 89 85 87 88 87 86 87 83 69 55 60 67 65 60 59 62 62 63 68 75 82 93 119 130 143 153 143 128 115 88 61 43 25 23 30 24 27 30 11 14 58 34 24 35 53 31 283 278 286 295 299 302 303 302 301 302 302 302 303 303 302 301 302 300 291 284 291 296 295 298 303 303 306 311 316 318 317 315 311 308 309 308 305 303
83 85 88 86 85 93 98 100 104 101 87 83 87 82 65 47 33 25 37 71 83 66 44 193 169 160 153 143 136 126 116 109 61 23 14 17 12 5 3 359 348 1 19 358 336 315 301 292 289 291 295 295 297 296 295 296 297 297 298 298 295 293 290 286 281 281 287 292 294 296 300 302 302 306 316 320 317 311 309 309 310 311 312 310 308
75 74 78 76 71 74 81 83 94 103 113 120 117 112 96 81 58 14 358 2 29 145 230 242 239 210 182 140 118 121 150 218 84 50 34 22 12 7 5 358 346 342 354 346 330 316 307 299 295 293 292 292 292 291 292 294 293 292 295 294 285 278 274 271 275 288 294 294 296 299 303 307 311 317 321 317 309 305 309 314 316 316 316 316 314
94 93 96 95 86 70 59 55 74 94 104 124 128 128 130 140 145 125 31 355 327 298 249 238 252 218 182 148 159 187 177 126 95 64 34 10 4 11 12 3 357 0 358 344 329 318 308 302 299 297 295 295 293 287 285 287 285 284 286 283 273 266 266 272 282 289 291 292 295 300 308 314 315 315 314 311 306 308 314 317 316 314 315 315 312
110 123 129 118 101 85 75 68 53 60 60 60 76 87 99 126 136 125 115 108 343 329 309 252 300 317 249 182 213 218 149 116 109 27 332 324 333 355 358 350 351 353 341 327 320 319 317 313 309 299 288 285 284 278 273 270 266 268 279 286 283 277 276 277 275 273 276 285 295 303 309 309 308 310 310 309 308 310 312 312 310 311 312 310 307
57 71 91 89 76 59 69 67 40 34 61 74 65 41 18 37 68 73 130 189 209 305 342 32 60 1 354 45 183 78 79 91 102 309 317 315 318 328 331 330 334 336 333 330 329 332 332 319 303 290 279 280 288 292 288 280 273 279 290 296 293 288 285 284 280 278 281 291 301 306 306 304 308 312 311 309 309 311 313 314 311 309 308 304 301
92 64 40 46 41 24 32 50 37 16 18 54 81 78 21 349 63 76 48 241 233 243 262 263 231 313 29 54 74 300 52 48 305 300 306 306 311 317 317 318 321 320 323 326 327 327 320 304 294 294 299 306 307 307 308 308 305 305 304 302 301 301 300 299 299 299 303 308 309 307 305 306 310 311 309 309 312 314 315 314 310 306 304 302 301
123 102 67 46 30 7 12 34 33 18 15 13 15 82 113 124 211 281 312 308 277 255 256 258 245 230 145 89 54 305 305 294 288 292 293 295 301 305 304 307 311 311 315 322 324 316 302 294 300 309 312 310 305 305 309 310 309 312 313 311 314 316 313 313 321 323 319 316 312 306 303 304 304 305 308 311 314 314 313 311 309 306 304 302 302
104 89 82 71 45 6 12 25 12 3 18 12 315 267 206 182 182 192 322 343 331 291 277 278 269 251 224 167 145 269 288 285 286 290 293 297 301 302 303 307 309 306 307 313 315 308 299 299 306 307 304 304 307 310 314 315 315 319 319 316 319 318 315 322 335 332 317 308 305 302 300 300 299 299 303 309 312 313 312 310 309 307 305 304 302
86 71 66 70 52 15 12 12 1 352 346 339 324 289 269 237 190 168 156 113 356 332 307 304 306 298 285 269 251 260 279 291 299 304 306 308 309 308 311 315 312 301 297 296 292 290 293 297 299 303 309 314 316 318 320 320 320 320 318 316 315 314 314 318 322 317 306 301 301 298 296 297 298 298 302 309 311 309 306 306 306 306 306 305 304
95 78 62 52 26 359 1 355 349 359 357 339 325 302 297 310 310 232 190 184 190 200 211 245 299 324 329 327 318 303 297 301 308 311 313 316 316 315 322 329 313 280 275 280 275 278 291 301 304 314 322 320 319 322 321 321 321 319 317 316 315 316 319 318 313 309 306 305 303 301 300 301 302 301 303 306 306 303 301 302 303 303 305 304 305
117 108 102 91 45 323 351 3 348 348 353 343 327 319 315 313 304 288 269 234 221 213 198 196 213 330 346 344 342 337 328 324 322 321 324 327 326 328 337 337 305 263 251 261 273 287 306 316 317 321 324 321 321 324 321 319 320 319 320 322 321 320 320 317 313 316 320 317 311 308 308 306 303 300 298 299 299 300 301 302 303 302 303 304 304
148 144 142 135 119 4 355 9 352 340 338 324 314 314 315 311 301 296 294 285 283 287 222 190 200 294 327 331 342 354 355 353 352 357 4 3 357 354 345 327 318 310 293 290 299 310 321 324 322 323 323 321 322 322 320 319 320 319 319 320 320 318 318 319 319 321 321 317 309 305 304 302 299 298 297 296 296 297 298 300 302 302 303 303 303
156 140 136 126 105 61 341 332 320 324 318 303 296 294 295 299 301 302 302 293 287 304 310 264 229 254 258 268 347 357 355 358 4 7 12 15 15 8 337 316 324 329 318 313 322 327 324 323 323 322 322 322 322 322 322 323 323 321 320 320 319 317 315 313 310 308 306 304 302 300 300 300 299 299 298 296 297 298 299 301 302 302 301 302 301
150 144 150 152 157 273 272 240 252 290 282 264 264 275 284 292 293 290 293 298 298 296 295 287 279 267 247 222 30 4 353 353 352 344 342 352 357 348 327 319 325 325 319 324 334 332 326 326 327 327 329 330 329 326 324 323 322 321 321 320 318 313 309 306 305 303 302 302 302 302 302 303 302 301 300 299 299 300 300 301 301 300 301 303 303
182 199 210 209 209 235 256 245 242 260 264 255 259 271 275 283 291 288 287 290 289 287 284 279 281 286 279 265 10 5 359 355 348 341 336 333 330 327 324 323 325 325 327 331 333 332 331 331 332 333 331 328 325 323 321 321 321 321 321 319 314 309 307 307 307 306 305 306 308 306 303 304 305 305 303 301 299 300 302 304 304 303 303 303 302
187 196 203 193 184 201 226 241 238 244 248 250 259 267 266 272 284 288 291 292 290 289 291 289 292 312 9 36 1 352 347 339 330 326 324 321 323 325 322 318 320 323 325 325 326 327 328 328 329 331 328 323 320 317 315 316 317 316 315 314 314 313 314 314 314 313 312 314 316 313 308 308 310 309 306 304 304 307 309 307 304 302 301 300 299
191 186 184 186 190 198 214 228 228 230 241 253 261 267 270 273 276 278 283 289 290 293 294 291 290 317 45 334 327 332 328 317 309 309 311 314 318 319 317 318 322 322 319 318 320 321 321 320 320 322 320 318 317 316 314 315 315 314 313 313 314 316 316 314 314 314 313 312 311 308 304 305 306 305 303 302 303 304 303 299 297 297 296 296 297
199 193 189 191 192 194 206 219 217 214 229 246 253 258 263 267 268 269 274 280 286 293 294 292 293 288 282 306 322 329 325 309 295 293 300 305 309 311 314 316 316 314 313 314 316 316 315 313 312 312 314 316 319 320 321 321 321 320 319 318 318 319 319 318 317 315 313 310 307 305 304 304 304 304 303 301 301 300 298 297 296 295 294 294 294
202 203 201 199 201 206 212 215 216 219 228 236 240 243 253 263 266 266 269 273 279 284 286 288 289 280 266 309 331 336 329 311 296 295 301 306 308 309 310 308 306 307 309 309 308 309 309 308 307 308 310 313 315 317 318 319 320 320 319 318 318 318 316 315 316 317 317 316 315 314 314 312 309 307 304 302 301 300 298 297 296 295 294 294 294
190 197 208 212 214 217 216 214 221 232 238 241 245 248 251 256 261 263 267 270 274 276 279 284 288 284 273 293 323 329 323 317 317 313 312 312 310 305 302 300 300 304 308 307 306 307 306 304 304 304 305 306 309 310 311 313 315 316 315 314 314 314 314 317 322 325 327 329 329 328 327 325 321 317 313 308 306 304 301 300 299 298 297 296 294
185 200 215 216 214 214 214 215 220 229 236 241 244 239 234 238 248 256 261 268 274 278 280 283 289 292 290 293 303 309 309 312 314 310 305 304 301 298 299 300 300 302 304 305 306 307 304 302 303 303 302 303 305 305 307 309 310 310 311 312 312 313 318 323 324 321 322 327 330 328 325 323 321 318 314 311 308 305 301 299 298 297 295 294 292
195 206 213 211 208 209 209 209 211 218 227 239 245 241 232 229 238 251 258 265 275 283 287 288 290 293 294 294 297 300 302 304 305 302 299 298 297 297 300 301 301 303 306 306 307 307 305 302 303 303 303 304 303 303 305 307 306 306 309 309 305 305 308 312 315 318 322 325 325 322 317 313 309 307 306 305 304 301 298 296 295 294 293 292 291
212 213 211 205 202 206 208 209 213 217 227 238 249 257 259 254 251 257 263 267 270 277 283 287 287 286 287 287 289 291 292 294 295 294 294 296 298 298 299 301 303 306 308 308 308 308 304 302 303 303 303 302 301 301 303 303 303 304 306 306 304 305 307 308 313 320 324 323 321 318 315 310 305 303 302 303 302 299 297 296 294 292 292 290 290
218 213 206 195 191 200 205 205 204 207 230 258 260 257 258 258 260 261 262 262 265 269 272 276 276 276 278 281 282 283 285 288 290 292 294 296 298 298 299 302 306 308 309 310 310 310 307 305 305 304 303 303 303 303 303 303 303 303 302 302 305 310 311 312 314 316 317 316 316 316 313 308 303 300 299 300 299 296 293 292 290 290 290 289 288
208 200 190 180 184 198 207 216 220 224 241 260 264 260 253 252 255 259 263 268 270 268 267 270 272 273 275 277 277 279 282 285 287 289 292 293 296 299 301 304 306 309 310 311 312 313 313 311 309 308 307 306 304 303 302 301 301 301 302 304 306 308 311 313 314 313 312 311 311 311 310 308 304 299 295 294 292 289 288 287 287 287 288 288 287
191 180 175 174 182 193 203 226 244 247 247 253 258 261 259 255 253 254 261 266 267 264 263 266 268 268 270 273 274 277 281 283 285 289 292 293 296 299 301 303 305 307 308 309 310 311 312 311 310 309 309 307 306 305 304 301 299 299 303 307 309 310 311 312 310 308 308 309 310 309 309 307 302 295 289 288 287 286 285 285 286 286 287 287 287
172 166 168 169 175 187 196 200 206 213 225 239 252 264 269 266 261 257 256 257 259 260 260 262 263 265 268 270 273 276 279 280 284 287 291 292 295 299 301 302 305 306 307 307 309 309 310 310 310 310 309 308 308 307 306 304 300 297 298 303 308 310 311 310 308 306 305 305 304 303 302 299 294 288 286 286 286 285 285 285 285 286 287 286 287
Height
841 843 845 847 848 849 851 852 854 855 856 857 857 858 859 859 860 860 861 862 863 864 865 865 866 866 866 867 867 867 868 868 869 869 869 870 869 869 869 869 870 870 870 870 869 869 869 869 869 869 869 869 868 868 867 867 867 867 867 867 867 867 868 868 868 866 864 864 863 861 861 860 859 859 858 857 855 854 853 852 850 848 846 844 842
840 842 843 846 847 848 850 851 852 854 854 856 856 857 858 858 859 860 860 861 861 862 863 864 864 865 865 866 866 866 867 867 868 868 868 868 868 868 868 868 869 869 869 869 869 869 869 869 869 868 868 868 867 867 866 866 865 865 866 866 866 866 866 867 866 865 864 863 862 861 860 859 858 857 857 855 854 853 852 850 849 847 845 843 842
839 841 843 845 846 848 849 850 851 852 853 854 854 855 856 857 858 858 859 860 860 861 862 862 863 864 864 865 865 865 866 866 867 867 867 867 867 867 867 867 868 868 868 868 868 868 868 868 868 867 867 866 866 866 866 865 865 865 865 866 865 865 866 866 865 864 863 862 861 860 859 858 857 856 855 854 853 852 850 849 848 846 845 843 842
838 840 842 844 845 846 848 849 850 851 851 852 852 853 854 855 856 857 857 858 859 859 860 861 862 863 863 864 864 864 865 865 865 865 866 866 866 866 866 866 866 867 867 867 867 867 867 867 867 867 866 866 866 866 865 865 865 865 865 865 865 865 865 865 864 864 863 862 861 860 859 858 857 855 855 853 852 851 850 848 847 845 844 843 841
837 839 841 842 844 845 846 847 848 849 850 851 851 851 851 852 853 854 855 856 856 857 858 859 860 861 862 863 863 863 863 864 864 864 864 864 865 865 865 865 865 865 865 865 865 865 866 866 866 866 866 865 865 865 864 864 865 864 864 864 864 864 864 864 864 863 863 862 861 860 859 858 856 855 854 852 851 850 848 847 846 844 843 842 841
836 838 840 841 842 844 845 846 847 848 849 850 850 850 850 850 851 852 853 854 855 855 856 858 859 859 860 861 861 862 862 862 862 863 863 863 863 863 863 863 864 864 864 864 864 864 864 864 864 864 864 864 864 864 863 864 864 864 864 864 864 864 863 863 862 862 861 861 860 859 858 856 855 853 853 852 850 848 847 846 845 844 843 841 840
836 838 839 840 841 842 843 845 845 846 847 849 849 849 849 849 849 850 851 852 853 853 854 855 857 857 858 859 859 860 860 860 861 861 862 862 861 862 862 862 862 862 862 862 862 862 862 862 862 862 863 863 863 863 863 863 863 863 863 863 863 863 863 862 861 861 860 859 858 857 856 855 854 853 851 850 849 847 846 844 843 842 842 841 839
835 837 838 839 840 841 842 843 844 845 846 847 848 849 849 849 848 849 849 850 851 852 852 853 854 855 856 856 857 858 858 859 859 859 860 860 860 860 860 861 861 861 861 861 861 861 860 860 861 861 861 861 861 862 862 862 862 862 862 862 862 862 862 861 861 860 859 858 857 856 855 854 852 851 850 848 847 846 845 843 842 841 840 840 838
834 835 837 838 839 840 841 842 843 844 845 846 847 848 848 848 848 848 849 849 849 850 850 851 852 853 853 854 855 855 856 856 856 857 858 858 859 859 859 859 859 859 860 860 859 859 859 859 859 859 859 859 860 860 861 861 861 862 862 862 862 862 861 861 860 859 859 857 856 855 853 852 850 849 848 847 846 845 844 842 841 840 839 838 837
833 834 836 837 838 839 840 841 842 843 844 845 845 846 847 847 847 847 848 848 848 849 849 849 850 850 851 852 853 853 853 853 854 855 856 857 858 858 857 857 858 858 859 859 858 858 858 858 858 858 858 858 859 859 860 860 860 860 861 861 861 860 860 860 859 858 857 856 855 854 852 850 849 848 847 846 845 844 842 841 840 839 839 837 835
830 833 835 835 836 837 839 841 842 842 843 843 844 845 845 845 846 846 847 847 848 848 848 848 848 849 849 850 850 851 851 851 852 853 854 855 857 857 856 856 856 857 858 857 857 857 857 857 856 856 857 857 858 858 858 859 859 859 859 859 859 859 859 858 858 857 857 855 854 853 851 850 849 848 847 846 844 843 842 841 840 839 838 836 833
828 831 833 835 835 836 838 839 841 841 841 841 842 843 844 844 845 846 846 846 847 847 848 848 848 848 848 848 849 849 849 849 850 852 853 854 855 856 856 856 856 856 856 856 856 856 855 855 855 855 855 856 857 857 858 858 858 858 858 857 857 857 857 857 856 856 856 855 853 852 851 850 849 847 846 845 844 843 842 841 840 839 837 836 833
828 830 831 834 834 835 836 837 838 838 838 839 840 841 842 842 843 844 844 845 846 846 847 847 847 847 847 848 848 848 848 848 849 851 852 853 854 855 856 856 855 854 854 854 854 854 854 854 854 854 854 854 856 857 857 857 856 856 856 856 856 855 855 855 854 854 854 854 853 852 851 850 849 848 847 846 844 843 841 840 839 838 836 835 832
828 829 830 831 832 834 835 834 835 835 835 837 838 838 839 840 840 841 842 843 844 845 846 847 846 846 846 847 847 846 847 847 848 850 851 852 853 854 854 855 854 854 853 852 852 852 853 853 852 853 853 853 855 856 856 856 856 856 856 855 855 854 854 854 853 853 853 852 851 850 850 849 849 847 847 846 844 843 841 840 838 837 835 833 831
828 829 829 830 831 832 832 832 833 834 834 835 836 836 838 838 838 839 840 841 842 842 844 846 845 846 847 848 847 846 846 847 848 849 850 851 852 852 853 854 854 853 852 852 851 851 851 851 851 852 852 852 854 855 854 855 855 855 855 854 854 854 854 854 854 853 852 851 850 849 848 848 848 846 845 844 843 842 840 839 837 835 833 831 828
830 830 830 830 831 831 831 831 832 832 833 834 835 836 837 836 836 837 837 838 839 840 842 844 844 846 849 849 848 847 847 847 848 849 849 850 851 852 853 853 854 854 854 853 852 851 851 851 852 853 853 852 853 853 853 854 854 854 854 853 853 853 853 853 853 852 851 850 849 848 847 846 845 844 843 842 841 840 838 837 835 833 831 829 826
834 834 833 833 832 832 831 832 832 832 833 834 835 835 835 835 835 835 836 836 838 840 841 842 844 846 848 848 847 847 847 847 848 848 849 850 851 851 852 853 853 855 856 855 854 853 853 853 855 856 855 853 853 853 853 854 854 854 853 852 852 852 852 851 851 850 850 848 847 846 845 844 843 842 841 840 839 838 837 835 834 832 830 828 825
837 837 837 837 836 835 833 833 833 834 835 836 836 836 835 835 835 835 836 835 836 839 841 842 844 845 846 846 846 845 846 846 847 848 849 850 850 851 852 852 852 854 855 855 854 853 853 854 854 855 855 853 853 853 853 854 854 854 853 852 851 851 850 850 849 848 847 846 845 844 843 842 840 839 838 837 836 836 835 834 832 832 830 828 826
838 839 839 839 838 837 836 836 836 836 836 837 837 837 836 835 835 836 836 836 836 838 840 842 844 844 845 846 846 845 845 846 847 848 849 849 850 851 851 851 851 852 853 854 854 853 853 853 852 852 853 853 853 853 853 853 853 853 853 852 850 850 849 849 848 847 846 845 844 842 841 840 838 837 835 834 833 833 832 831 831 831 830 829 827
839 839 840 840 840 839 839 839 838 838 838 838 838 838 837 836 836 836 837 837 836 837 839 841 843 844 844 845 846 846 846 847 848 848 848 849 850 850 851 851 851 851 852 853 854 852 852 853 852 852 853 853 853 853 853 853 852 852 852 852 851 849 848 848 847 846 845 844 842 841 839 838 837 835 834 832 831 831 830 829 830 830 829 828 827
839 840 841 842 841 841 841 841 840 840 840 840 839 840 840 839 838 838 838 838 838 838 839 841 842 843 844 845 845 846 847 847 848 848 848 849 850 850 851 850 850 851 852 854 854 853 852 852 851 851 852 853 853 853 852 852 852 851 851 851 850 849 848 847 846 845 844 843 841 840 839 837 836 834 832 831 831 830 829 829 829 828 828 827 825
842 842 842 843 843 842 842 842 842 843 843 841 841 842 841 841 840 840 840 841 841 841 841 841 842 843 844 844 845 846 847 847 847 848 849 850 850 850 850 850 850 850 851 853 853 852 851 851 851 852 853 853 853 852 851 851 851 850 850 849 849 848 847 846 845 844 843 842 840 839 838 837 835 833 832 831 830 829 829 828 828 828 827 826 824
844 844 844 844 844 843 844 843 844 845 845 843 842 843 842 842 842 842 842 842 843 843 843 843 843 843 843 844 845 846 847 847 848 849 849 850 850 851 851 850 850 850 850 851 851 851 851 851 852 852 852 852 852 851 850 850 849 849 848 848 847 847 846 845 843 842 841 840 839 838 837 836 834 833 832 831 830 829 829 828 827 826 825 824 823
845 845 846 846 845 845 845 845 845 845 845 845 844 843 843 843 843 843 843 843 844 845 845 845 844 843 843 844 845 846 847 847 848 849 850 851 851 851 851 851 850 850 850 850 851 851 851 851 851 850 850 850 849 849 849 848 848 847 846 846 845 845 844 843 842 841 840 840 839 837 836 835 834 833 832 831 830 829 828 827 826 825 824 823 822
846 846 847 847 847 847 846 846 846 846 846 846 845 844 844 844 844 845 844 845 846 846 846 846 846 845 845 845 846 847 848 848 849 850 851 852 852 851 851 851 851 850 850 850 851 851 851 851 850 849 849 848 848 847 847 846 845 845 844 844 843 843 842 841 841 840 840 839 838 836 835 834 833 832 831 830 830 829 828 827 825 824 823 822 820
847 848 848 848 848 847 847 847 847 847 847 846 845 844 844 845 846 847 846 846 847 847 847 848 847 846 847 847 848 849 849 849 850 851 851 852 852 852 852 851 851 851 851 851 850 850 850 850 849 848 848 847 846 845 845 844 843 843 842 841 841 841 840 840 840 839 838 838 837 836 834 833 832 832 831 830 829 828 827 826 825 824 823 821 819
848 849 849 848 848 848 847 847 847 847 846 845 845 845 846 847 848 849 848 848 848 848 848 848 847 847 848 848 849 850 850 850 850 851 851 852 852 852 852 852 851 851 851 850 850 849 849 848 847 847 846 845 844 843 842 842 842 841 840 840 839 839 839 839 839 838 837 836 836 835 834 833 832 831 831 830 828 827 827 826 825 823 822 821 819
848 848 848 848 848 848 848 847 847 846 846 846 846 846 846 847 848 848 848 848 849 849 849 848 849 849 849 849 849 850 849 849 849 850 850 851 851 851 851 851 851 851 850 850 849 848 848 846 845 845 844 843 842 841 840 840 840 839 839 839 839 838 838 837 836 836 835 835 835 834 834 833 832 831 830 829 828 827 826 825 824 823 822 820 818
848 848 848 848 848 848 848 847 847 847 847 847 847 848 848 848 848 849 848 848 849 851 851 850 850 851 850 849 849 849 849 849 849 850 850 850 851 851 850 850 850 850 850 849 848 847 846 845 844 843 842 841 841 840 839 839 839 839 839 838 838 837 836 835 835 834 834 834 834 833 833 832 831 831 830 828 827 826 826 825 824 823 821 820 817
848 848 848 848 848 848 848 848 848 848 848 848 848 849 849 849 849 849 849 849 850 851 851 851 851 851 851 850 849 849 849 849 849 849 850 850 850 850 850 850 850 849 849 849 848 847 846 845 844 842 841 841 840 840 839 839 839 838 838 837 837 836 835 835 834 834 833 833 833 833 832 831 831 830 829 828 827 826 825 824 823 822 820 818 816
848 848 848 849 850 849 849 849 849 850 849 849 849 849 849 850 850 850 850 851 851 851 851 851 852 852 851 851 850 850 850 849 849 850 849 849 849 849 849 849 849 849 849 848 847 846 845 844 843 842 841 841 840 840 839 839 839 838 838 837 837 836 835 835 834 833 833 833 833 832 831 830 830 829 828 827 826 825 825 823 822 821 819 817 815
848 848 849 850 850 850 850 850 850 850 850 850 850 850 850 850 850 850 850 850 850 851 851 851 852 852 851 851 851 850 849 849 849 849 849 848 848 848 848 848 848 848 847 847 846 845 844 844 843 842 841 841 840 840 840 839 839 839 838 838 837 836 836 835 834 834 834 833 832 832 831 830 829 828 827 827 826 825 824 823 821 820 818 817 815
848 848 849 850 850 850 851 850 850 851 851 851 851 850 850 849 849 849 850 850 849 850 850 850 851 850 850 850 850 850 849 849 848 848 847 847 847 846 846 846 846 846 846 846 845 845 844 843 842 841 841 841 840 840 840 840 839 839 838 838 837 836 836 835 834 834 834 833 832 831 830 829 828 827 826 826 825 825 824 822 821 819 818 816 814
849 850 850 851 851 851 851 851 851 850 850 851 851 850 850 849 849 849 849 849 849 849 849 849 849 849 849 849 849 849 848 848 848 847 847 846 846 845 845 845 844 844 844 845 845 844 843 843 842 841 841 841 841 841 840 840 840 839 838 838 837 836 836 835 834 834 833 832 831 830 829 828 827 826 826 826 825 824 823 821 820 819 817 816 814
850 850 851 851 852 852 851 851 851 851 851 851 851 850 850 850 850 849 849 848 848 848 847 848 848 848 849 849 848 848 848 848 847 847 847 846 846 845 845 844 843 843 843 843 844 843 843 842 842 842 842 841 841 841 840 840 839 839 838 838 837 836 836 835 834 833 832 832 831 830 829 829 828 827 826 825 824 823 822 820 819 818 816 815 814
850 851 851 852 852 852 852 852 852 851 851 851 851 850 850 850 850 849 849 848 848 847 847 847 847 847 848 848 848 848 848 848 848 847 847 846 846 845 845 845 844 843 843 843 843 843 843 843 842 842 842 841 841 841 840 840 839 839 838 838 837 836 836 835 834 833 833 832 831 831 830 829 828 827 826 824 823 822 821 819 818 817 816 815 814
850 850 851 851 852 852 852 852 852 852 851 851 851 851 850 850 850 849 849 849 848 848 848 848 848 848 848 848 848 848 848 848 848 847 847 847 846 845 846 845 845 845 844 844 844 844 844 843 843 843 842 842 842 841 841 840 840 839 839 838 837 836 836 835 834 833 833 832 831 830 829 828 827 826 825 823 822 821 819 818 817 816 815 814 812
849 849 850 851 851 851 852 852 851 851 851 851 851 851 850 850 850 850 849 849 849 849 849 848 848 848 847 847 848 849 848 848 848 847 847 847 846 846 846 846 846 846 845 845 845 845 844 844 844 843 843 843 842 842 841 841 840 840 839 838 837 837 836 835 834 833 832 831 830 829 828 827 826 825 824 823 821 820 819 818 816 815 813 813 811
848 848 849 849 850 850 851 851 851 851 851 851 851 851 851 850 850 850 849 849 849 849 849 848 848 848 847 848 849 849 849 849 849 848 848 848 847 847 847 847 846 846 846 846 846 845 845 845 844 844 844 843 843 843 842 842 841 840 840 839 838 837 835 834 833 832 831 830 829 828 827 827 826 825 824 823 821 820 819 817 816 815 813 812 811
847 847 848 848 849 850 850 850 851 851 850 850 850 850 850 850 850 850 849 849 849 849 849 848 848 848 848 849 850 850 851 851 851 850 849 849 848 848 848 847 847 847 846 846 846 846 846 845 845 845 845 844 844 844 843 842 842 841 840 840 839 837 836 835 834 833 832 831 830 829 828 827 826 825 824 823 822 820 819 818 817 816 814 812 811
845 846 847 847 848 849 849 850 850 850 850 850 850 850 850 850 850 850 850 849 849 849 849 849 849 848 848 849 850 851 852 852 851 851 850 849 849 848 848 848 847 847 847 847 847 846 846 846 846 846 845 845 845 844 843 843 842 841 840 840 839 838 837 836 835 834 833 832 831 830 829 828 827 826 824 823 822 821 819 818 816 815 813 812 810
844 845 845 846 847 847 848 848 848 849 849 850 850 850 850 850 849 850 849 849 849 849 849 849 849 848 848 849 850 851 851 851 851 850 850 849 849 848 848 848 848 848 848 848 847 847 847 847 847 846 846 845 845 844 843 843 842 841 840 840 839 838 837 836 835 834 833 832 831 830 828 827 826 825 824 823 821 820 818 817 815 814 812 810 808
842 843 844 845 846 846 846 847 847 848 848 849 849 849 849 849 849 849 849 849 850 850 849 849 849 848 848 848 849 850 850 850 850 850 850 849 849 849 848 849 849 848 848 848 848 848 848 847 847 846 846 845 845 844 844 843 843 842 841 840 839 838 837 836 835 834 833 831 830 829 828 827 826 825 824 822 821 819 818 816 814 812 810 808 807
841 842 843 844 845 845 845 846 846 847 847 848 848 848 848 849 849 849 849 849 849 849 849 849 849 849 848 848 848 849 849 849 850 850 850 850 849 849 849 849 849 849 849 849 849 849 848 848 847 847 846 846 845 845 844 844 843 842 842 841 840 839 838 836 835 834 833 832 831 830 829 828 827 825 824 823 821 819 817 815 813 811 809 807 805
839 840 842 843 843 844 844 844 845 846 847 847 847 847 847 848 848 848 849 849 849 849 849 849 849 849 848 848 849 849 849 849 850 850 850 850 850 850 850 850 850 850 850 850 849 849 848 848 847 847 846 845 845 845 844 844 843 843 842 841 840 839 837 836 835 834 834 833 832 831 830 829 828 827 825 824 822 820 818 816 814 811 809 806 804
837 838 840 840 841 842 843 843 844 845 845 846 846 846 846 847 847 848 848 849 849 849 849 849 849 849 849 849 849 849 849 850 850 850 850 850 850 850 851 850 850 850 850 850 849 849 848 847 847 846 846 845 845 844 844 843 843 842 842 841 840 837 836 835 835 834 834 833 832 831 830 829 827 826 825 824 822 820 817 815 813 810 808 805 802
836 837 838 839 839 840 841 842 843 844 844 845 845 845 846 846 846 847 848 848 849 849 849 849 849 849 849 849 849 849 849 850 850 850 850 850 850 850 851 850 850 850 849 849 849 848 847 847 846 845 845 845 844 844 843 842 842 842 842 840 837 836 835 835 834 834 833 832 831 830 829 827 826 825 824 823 821 819 816 814 811 809 806 803 800
835 836 837 838 838 839 841 841 842 843 844 845 846 846 846 846 846 847 847 848 848 849 849 849 849 849 849 849 849 850 850 850 850 850 850 850 850 850 850 850 850 849 849 848 848 847 846 846 845 845 844 844 843 843 842 841 841 841 840 838 835 835 834 834 833 832 832 830 830 829 827 826 825 824 822 821 819 817 814 812 809 806 804 801 798
835 836 837 837 838 839 840 841 841 841 842 844 846 847 846 846 846 846 847 847 848 848 849 849 849 849 849 850 850 850 850 850 850 851 850 850 850 850 850 849 849 849 848 848 847 846 845 845 844 844 843 843 842 842 841 840 840 840 838 836 834 833 833 832 831 831 830 828 827 827 825 824 822 821 820 819 816 814 811 808 806 803 801 798 795
835 835 835 836 837 838 839 840 840 840 841 844 846 846 846 846 846 846 847 847 848 848 849 849 849 849 850 850 850 850 850 850 851 851 850 850 850 850 849 849 849 848 848 847 846 846 845 844 844 843 843 842 841 841 840 839 839 838 836 834 833 832 831 830 829 828 827 826 825 823 822 821 820 818 817 815 813 810 808 805 802 800 798 795 793
834 834 835 836 837 838 839 840 841 842 843 845 846 846 846 846 846 846 847 848 848 848 849 849 849 849 849 850 850 850 850 850 850 850 850 849 849 849 849 848 848 847 847 847 846 845 845 844 843 842 842 841 840 839 839 838 838 836 834 833 832 830 829 829 828 826 825 824 822 820 819 818 816 815 813 811 809 806 804 801 799 797 795 792 790